レモン彗星

349P/Lemmon (2017)

English version
Home page
Updated on July 7, 2017

---------------------------------------------------------------------

・ プロフィール

符号 349P/2017 B1
検出日 2017年1月26日
検出光度 21.0等
検出者 Pan-STARRS 1 telescope (Haleakala)

・ 写真集

・ 軌道要素

Epoch 2017 Sept. 4.0 TT = JDT 2458000.5
T 2017 Aug. 26.73607 TT                                 MPCW
q   2.4985174            (2000.0)            P               Q
n   0.14596976     Peri.  255.97923     -0.67010938     +0.74088147
a   3.5724059      Node   331.78248     -0.63872316     -0.60662235
e   0.3006065      Incl.    5.49243     -0.37813508     -0.28827761
P   6.75
From 88 observations 2010 Mar. 14-2017 Apr. 20, mean residual 0".6.

・ 光度変化

        m1 = 9.0 + 5 logΔ + 20.0 log r

---------------------------------------------------------------------

軌道要素はM.P.E.C. 2017-J52に掲載されたものです。
光度グラフはComet for Windowsで作成したものです。

---------------------------------------------------------------------

Copyright(C) Seiichi Yoshida (comet@aerith.net). All rights reserved.